Regional Weather Roundup
Issued by NWS

Home | Current Version | Previous Version | Graphics & Text | Print | Product List | Glossary On
Versions: 1 2 3 4 5 6 7 8 9 10 11 12 13 14 15 16 17 18 19 20 21 22 23 24 25 26 27 28 29 30 31 32 33 34 35 36 37 38 39 40 41 42 43 44 45 46 47 48 49 50
000
ASUS43 KOAX 302110
RWRNE

WEATHER ROUNDUP FOR NEBRASKA
NATIONAL WEATHER SERVICE OMAHA NE
400 PM CDT SAT JUL 30 2016

NOTES: SATELLITE DATA IS BEING USED TO AUGMENT CLOUD COVER ABOVE
       12000 FEET.
       "FAIR" INDICATES FEW OR NO CLOUDS BELOW 12,000 FEET WITH NO
       SIGNIFICANT WEATHER AND/OR OBSTRUCTIONS TO VISIBILITY.

  * THESE STATIONS DO NOT REPORT WEATHER SUCH AS RAIN...SNOW OR FOG.

NEZ001>004-019>022-054>056-302200-
NEBRASKA PANHANDLE

CITY           SKY/WX    TMP DP  RH WIND       PRES   REMARKS
SCOTTSBLUFF    SUNNY     87  62  43 E15       29.95F
ALLIANCE       SUNNY     85  60  42 S14G22    29.96F
CHADRON        SUNNY     92  56  29 S15G22    29.88F HX  90
KIMBALL        SUNNY     85  57  37 SE13G21   30.02F
SIDNEY         SUNNY     88  53  30 SE13      30.01F
$$

NEZ057>060-069>072-079>082-302200-
SOUTHWEST NEBRASKA

CITY           SKY/WX    TMP DP  RH WIND       PRES   REMARKS
NORTH PLATTE   MOSUNNY   85  69  58 SE9       29.95S
IMPERIAL       SUNNY     88  61  40 SE14      29.94F
LEXINGTON      MOSUNNY   83  69  60 S12       29.95F
MCCOOK         SUNNY     92  62  36 S10       29.93S HX  92
OGALLALA       SUNNY     87  59  38 SE14      29.95F
$$

NEZ005>010-023>029-035>040-094-302200-
NORTH CENTRAL NEBRASKA

CITY           SKY/WX    TMP DP  RH WIND       PRES   REMARKS
VALENTINE      SUNNY     87  61  41 S16       29.92F
AINSWORTH      MOSUNNY   83  67  57 S10       29.94F
BROKEN BOW     MOSUNNY   81  70  69 S13G21    29.97S
O`NEILL        MOSUNNY   81  65  58 SE13      29.96F
ORD            MOSUNNY   82  65  56 SE12      29.95F
THEDFORD       MOSUNNY   86  66  51 S13       29.96F
$$

NEZ041-046>049-061>064-073>077-083>087-302200-
SOUTH CENTRAL NEBRASKA

CITY           SKY/WX    TMP DP  RH WIND       PRES   REMARKS
GRAND ISLAND   PTSUNNY   81  69  67 SE9       29.97F
AURORA         PTSUNNY   79  71  75 E8        29.98S
HASTINGS       PTSUNNY   84  66  54 S9        29.97F
HEBRON         SUNNY     82  66  59 SE12      29.97S
HOLDREGE       SUNNY     84  64  50 S14       29.95F
KEARNEY *      MOSUNNY   84  70  61 SE10      29.97S
YORK           PTSUNNY   77  68  73 SE9       29.98F
$$

NEZ011>018-030>034-042>045-302200-
NORTHEAST NEBRASKA

CITY           SKY/WX    TMP DP  RH WIND       PRES   REMARKS
NORFOLK        MOSUNNY   80  62  54 S14G22    29.97F
ALBION         PTSUNNY   78  65  65 SE12      29.99S
BLAIR          MOSUNNY   80  65  59 SE8       29.99F
FREMONT        SUNNY     80  62  53 SE7       29.99S
TEKAMAH        PTSUNNY   81  59  47 VRB5      29.98S
WAYNE          MOSUNNY   79  66  64 S9        29.99S
$$

NEZ050>053-065>068-078-088>093-302200-
SOUTHEAST NEBRASKA

CITY           SKY/WX    TMP DP  RH WIND       PRES   REMARKS
LINCOLN        CLOUDY    77  66  68 SE13      30.00S
OMAHA EPPLEY   MOSUNNY   81  63  54 SE8       29.98F
BEATRICE       MOSUNNY   79  64  60 E6        29.98F
FALLS CITY     PTSUNNY   77  69  76 SE8       29.98R
NEBRASKA CITY  CLOUDY    76  66  70 SE7       29.99F
PLATTSMOUTH    MOSUNNY   79  67  65 SE8       29.99F
$$

NEZ044-045-051>053-067-302200-
OMAHA AREA

CITY           SKY/WX    TMP DP  RH WIND       PRES   REMARKS
OMAHA EPPLEY   MOSUNNY   81  63  54 SE8       29.98F
BLAIR          MOSUNNY   80  65  59 SE8       29.99F
FREMONT        SUNNY     80  62  53 SE7       29.99S
MILLARD        SUNNY     80  65  59 SE7       29.98F
PLATTSMOUTH    MOSUNNY   79  67  65 SE8       29.99F
WAHOO          FAIR      80  65  60 SE8       29.98F
$$




USA.gov is the U.S. government's official web portal to all federal, state and local government web resources and services.